Regional Weather Roundup
Issued by NWS Boston, MA

Current Version | Previous Version | Text Only | Print | Product List | Glossary Off
Versions: 1 2 3 4 5 6 7 8 9 10 11 12 13 14 15 16 17 18 19 20 21 22 23 24 25 26 27 28
000 ASUS41 KBOX 121010 RWRBOX REGIONAL WEATHER ROUNDUP NATIONAL WEATHER SERVICE TAUNTON MA 500 AM EST TUE DEC 12 2017 NOTE: "FAIR" INDICATES FEW OR NO CLOUDS BELOW 12,000 FEET WITH NO SIGNIFICANT WEATHER AND/OR OBSTRUCTIONS TO VISIBILITY. MAZALL-121100- EASTERN MASSACHUSETTS CITY SKY/WX TMP DP RH WIND PRES REMARKS BOSTON CLOUDY 37 27 67 SE10 29.89F WCI 30 BEVERLY CLOUDY 31 27 85 CALM 29.89F LAWRENCE CLOUDY 32 25 75 N3 29.91F BEDFORD CLOUDY 30 24 78 CALM 29.87F BLUE HILL N/A 33 23 66 SE13 29.85F WCI 24 NORWOOD CLOUDY 31 28 89 CALM 29.89F MARSHFIELD CLOUDY 39 30 70 SE7G13 29.88F PLYMOUTH CLOUDY 35 28 75 E3 29.88F TAUNTON CLOUDY 31 29 92 CALM 29.87F NEW BEDFORD CLOUDY 33 30 88 CALM 29.87F $$ MAZALL-121100- CAPE COD AND THE ISLANDS CITY SKY/WX TMP DP RH WIND PRES REMARKS FALMOUTH CLOUDY 36 28 75 NE7 29.88F WCI 30 HYANNIS CLOUDY 35 30 82 NE3 29.87F CHATHAM CLOUDY 41 32 70 SE5 29.90F PROVINCETOWN CLOUDY 37 29 72 E5 29.91F NANTUCKET CLOUDY 43 35 73 SE13 29.88F MARTHAS VNYRD CLOUDY 2 32 100 CALM 29.87F $$ MAZALL-121100- CENTRAL AND WESTERN MASSACHUSETTS CITY SKY/WX TMP DP RH WIND PRES REMARKS WORCESTER CLOUDY 28 18 66 E6 29.82F WCI 22 FITCHBURG CLOUDY 30 26 85 W3 29.88F ORANGE LGT SNOW 27 27 100 NW3 29.83F FOG SPRINGFIELD CLOUDY 32 21 62 E3 29.82F WESTFIELD CLOUDY 29 26 89 N6 29.83F WCI 23 NORTH ADAMS LGT SNOW 28 24 85 E7 29.78F FOG WCI 21 PITTSFIELD LGT SNOW 29 23 78 E6 29.73F WCI 23 $$ RIZALL-121100- RHODE ISLAND CITY SKY/WX TMP DP RH WIND PRES REMARKS PROVIDENCE CLOUDY 36 30 79 E6 29.88F WCI 31 NEWPORT CLOUDY 36 29 75 E3 29.86F BLOCK ISLAND N/A N/A N/A N/A MISG N/A SMITHFIELD MIX PCPN 32 25 75 E5 29.86F WCI 27 WESTERLY CLOUDY 35 28 75 NE5 29.86F WCI 31 $$ CTZALL-121100- CONNECTICUT CITY SKY/WX TMP DP RH WIND PRES REMARKS BRADLEY INTL CLOUDY 30 24 78 NW3 29.83F HARTFORD CLOUDY 35 24 64 CALM 29.84F BRIDGEPORT CLOUDY 42 31 64 SE13 29.80F DANBURY CLOUDY 35 26 69 SE3 29.78F GROTON CLOUDY 37 27 67 N5 29.84F NEW HAVEN CLOUDY 42 30 62 SE9 29.81F CHESTER FAIR 34 25 69 CALM 29.82F MERIDEN CLOUDY 31 26 82 CALM 29.82F WILLIMANTIC CLOUDY 32 26 78 CALM 29.86F OXFORD CLOUDY 34 27 75 E7 29.78F WCI 28 $$ MEZ002-015-021-024-NHZ003-005-008-011-012-014-VTZ005-008-121100- NORTHERN NEW ENGLAND CITY SKY/WX TMP DP RH WIND PRES REMARKS PORTLAND ME LGT SNOW 21 17 84 N8 29.96F FOG WCI 11 BANGOR ME CLOUDY 13 8 81 N7 30.03F WCI 3 CONCORD NH LGT SNOW 27 24 89 NE3 29.89F FOG MANCHESTER NH LGT SNOW 29 25 85 CALM 29.88F FOG NASHUA NH FLURRIES 28 26 92 CALM 29.89F PORTSMOUTH NH FLURRIES 28 25 88 N8 29.90F WCI 20 JAFFREY NH LGT SNOW 27 25 92 VRB3 29.83S FOG KEENE NH LGT SNOW 28 25 86 CALM 29.85S FOG BURLINGTON VT LGT SNOW 22 18 85 S6 29.76F FOG WCI 14 MT. WASHINGTON SNOW 5 5 100 S40G49 N/A VSB 1/16WCI -22 $$ NYZ052-076-121100- EASTERN NEW YORK CITY SKY/WX TMP DP RH WIND PRES REMARKS ALBANY LGT SNOW 30 27 88 SE5 29.75F FOG WCI 25 NEW YORK CITY CLOUDY 45 36 70 S10G16 29.76F $$ ANZALL-121100- MARINE OBSERVATIONS STATION/POSITION TIME TEMP WIND PRES VSBY WAVE AIR SEA DIR/SP/G HT/PER (UTC) (F) (DEG/KT/KT) (MB) (MI) (FT/S) BOSTON BUOY 0850 40 48 130/ 12/ 16 1012.2 1/11 BUZZARDS BAY 0900 43 180/ 9/ 11 1012.4F NANTUCKET SOUND 0850 42 44 120/ 10/ 12 1013.0 1/ 3 MASS BAY-STELLWA 0904 39 47 170/ 10/ 14 1012.8F 2/11 ISLE OF SHOALS 0900 38 150/ 9/ 12 1013.2F S OF BLOCK IS 0943 53 N/A 3/ 9 $$ ......................KEY......................... SKY/WX - SKY CONDITION/PRESENT WEATHER TMP - TEMPERATURE IN FAHRENHEIT DWPT - DEWPOINT IN FAHRENHEIT RH - RELATIVE HUMIDITY IN PERCENT WIND - DIRECTION AND SPEED IN MPH PRES - MEAN SEA LEVEL PRESSURE IN INCHES OF HG WCI - WIND CHILL INDEX VSB - VISIBILITY IN MILES HX - HEAT INDEX TC - TEMPERATURE IN CELSIUS VRB - VARIABLE WIND DIRECTION N/A - NOT AVAILABLE

USA.gov is the U.S. government's official web portal to all federal, state and local government web resources and services.